Location: Napier
(39.4830°S, 176.9170°E)
Time: 02:34:00
(UTC+13:00)

ISS - Visible Passes

Search period start: 26 March 2019 00:00
Search period end: 05 April 2019 00:00
Orbit: 408 x 411 km, 51.6° (Epoch: 25 March)

Date Brightness Start Highest point End Pass type
(mag) Time Alt. Az. Time Alt. Az. Time Alt. Az.
27 Mar -2.9 06:34:53 10° NNW 06:38:08 49° NE 06:41:25 10° ESE visible
28 Mar -1.8 05:46:06 18° N 05:47:37 26° NE 05:50:29 10° ESE visible
29 Mar -0.7 04:58:03 13° ENE 04:58:03 13° ENE 04:59:01 10° E visible
29 Mar -3.6 06:30:51 16° WNW 06:33:24 60° SW 06:36:46 10° SE visible
30 Mar -3.7 05:42:40 72° NNE 05:42:45 72° NE 05:46:07 10° SE visible
31 Mar -0.8 04:54:22 17° ESE 04:54:22 17° ESE 04:55:18 10° ESE visible
31 Mar -2.5 06:27:08 19° WSW 06:28:48 28° SSW 06:31:47 10° SE visible
01 Apr -2.7 05:38:44 37° S 05:38:44 37° S 05:41:17 10° SE visible
02 Apr -0.5 04:50:15 13° SE 04:50:15 13° SE 04:50:41 10° SE visible
02 Apr -1.7 06:23:01 14° SW 06:24:20 17° SSW 06:26:38 10° SSE visible
03 Apr -1.6 05:34:28 20° S 05:34:28 20° S 05:36:11 10° SSE visible
04 Apr -1.3 06:18:38 10° SW 06:19:56 12° S 06:21:25 10° SSE visible
